Lapse_Rate
6.3 6.9 6.8 6.1 5.8 5.7 5.7 5.5 5.1 5.3 5.9 6.7 7.1 7.2 7.0 6.7 7.2 6.7 6.3 6.4 6.2 6.3 6.0 5.8 5.6 5.7 5.7 5.7 5.8 5.7 5.8 5.7 5.8 5.6 5.8 5.6 5.6 5.6
6.2 6.5 6.8 6.2 6.0 5.6 5.8 5.9 6.3 6.0 6.0 6.5 7.1 7.2 7.0 6.5 6.9 6.6 6.3 6.5 6.2 6.2 6.1 5.8 5.6 5.5 5.6 5.4 5.6 5.7 5.8 5.7 5.9 5.9 6.0 5.9 5.8 5.8
6.2 6.2 6.6 6.1 5.7 5.8 5.9 5.8 5.3 5.3 5.4 5.8 6.7 6.9 6.6 6.4 6.5 6.4 6.4 6.6 6.4 6.4 6.1 5.6 5.5 5.3 5.6 5.5 5.5 5.6 5.8 5.6 5.7 5.7 5.9 6.0 6.0 5.9
5.9 5.9 6.0 6.4 6.1 5.8 5.7 5.9 5.3 5.2 6.0 6.4 6.1 6.5 6.3 6.7 6.4 6.4 6.4 6.3 6.3 6.4 6.3 6.1 5.3 5.5 5.4 5.5 5.6 5.7 5.8 5.4 5.5 5.7 6.0 6.1 6.1 6.0
6.4 5.7 5.7 6.0 6.3 5.5 5.8 5.8 5.7 5.8 5.4 6.1 5.9 6.1 6.1 6.4 6.4 6.5 6.4 6.1 6.6 6.4 6.3 6.1 5.7 5.5 5.7 5.7 5.8 5.9 5.8 5.7 5.9 5.9 5.9 6.1 6.3 6.0
5.8 5.9 5.5 5.6 5.8 6.0 5.4 5.5 5.6 5.8 6.0 6.3 6.1 5.9 6.0 6.2 6.5 6.4 6.2 6.2 6.5 6.3 6.3 6.3 6.0 5.6 5.9 6.1 6.2 6.2 6.1 6.2 6.1 6.2 5.9 5.8 5.9 6.0
5.6 6.1 6.4 5.6 5.6 5.8 5.8 5.6 5.3 5.6 5.7 6.1 5.4 5.6 5.5 6.0 6.2 6.2 6.4 6.3 6.4 6.3 6.2 6.1 6.1 5.9 5.9 6.1 6.2 6.0 6.1 6.0 6.0 6.1 6.1 5.9 6.0 5.9
5.7 6.0 6.1 6.2 6.0 5.9 6.0 6.1 5.2 5.6 6.0 6.0 6.1 5.9 6.1 5.2 5.6 5.7 6.3 5.9 6.1 6.0 6.1 6.1 6.0 6.1 6.0 6.1 6.1 6.0 6.0 6.1 6.1 6.1 6.2 6.2 6.0 5.9
5.2 5.5 6.0 6.3 6.2 6.5 6.1 6.0 6.0 5.7 5.7 6.1 5.6 6.2 5.7 5.7 5.4 5.5 5.6 5.9 6.0 6.0 6.0 6.0 6.1 6.2 6.2 6.2 6.1 6.1 6.2 6.2 6.2 6.2 6.2 6.4 6.2 5.9
5.1 5.3 5.4 5.6 6.3 6.2 6.2 6.3 6.1 6.4 6.0 5.7 5.3 5.2 5.4 5.9 5.2 5.5 5.4 5.7 5.9 5.9 6.1 6.0 6.0 6.1 6.3 6.1 6.0 6.1 6.1 6.1 6.1 6.3 6.2 6.4 6.4 6.2
5.1 4.9 5.2 5.3 5.3 5.0 5.6 5.9 6.0 5.8 5.7 5.8 5.6 5.4 5.6 5.1 5.5 5.3 5.2 5.5 5.7 5.9 6.0 6.0 6.0 6.3 6.3 6.3 6.2 6.2 6.1 6.0 6.1 6.2 6.0 6.4 6.6 6.2
5.2 5.1 5.2 5.1 5.0 5.1 5.1 4.7 4.9 5.1 5.2 4.9 5.2 5.7 5.6 5.7 5.7 5.8 5.8 5.5 5.4 5.7 5.8 5.4 5.9 6.0 6.2 6.5 6.6 6.6 6.3 5.9 6.1 6.2 6.2 6.3 6.2 5.9
5.3 5.7 5.6 5.2 5.0 4.4 4.3 4.3 4.2 4.1 4.2 4.2 4.3 4.7 5.1 5.0 5.1 5.5 5.7 5.6 5.6 5.3 5.7 5.7 5.7 5.8 5.7 5.9 6.4 6.6 6.6 6.2 6.2 6.2 6.2 6.2 5.9 5.6
5.3 5.4 5.5 5.5 5.1 4.8 4.5 4.3 3.9 3.6 3.6 3.4 3.8 3.7 4.1 4.2 4.3 4.6 4.7 4.7 4.8 5.1 5.0 4.9 5.6 5.4 5.6 6.0 5.9 6.1 6.9 6.5 6.0 5.9 5.6 5.7 5.4 5.3
5.0 4.8 5.1 5.1 4.8 4.9 5.1 4.6 4.2 4.2 4.0 3.8 3.6 3.8 3.9 4.1 4.0 3.9 4.0 4.0 4.2 4.4 4.3 5.0 5.0 5.1 5.4 5.6 5.8 5.9 6.6 6.5 6.1 5.5 5.1 4.8 4.9 5.0
4.2 3.9 4.0 4.3 5.1 5.3 5.3 5.0 5.0 4.8 4.5 4.3 4.0 3.9 3.8 3.9 3.9 4.2 4.1 4.1 4.0 3.7 4.0 3.8 4.0 4.3 5.3 5.3 5.0 5.7 5.9 5.4 5.7 5.5 5.2 5.1 4.9 4.9
4.6 4.3 4.6 4.6 4.5 4.4 4.8 5.2 5.4 5.0 4.8 4.7 4.5 4.3 4.2 4.1 4.0 3.9 3.7 4.1 4.1 3.9 3.8 4.1 4.2 3.9 4.0 4.0 4.5 4.9 4.9 4.8 4.7 5.5 5.5 5.1 5.0 5.1
4.4 4.6 4.7 4.7 5.0 5.0 4.8 4.6 4.6 4.6 4.8 5.1 5.0 4.5 4.4 4.5 4.7 4.7 4.2 3.9 3.9 4.0 4.1 4.0 3.9 3.9 4.2 4.4 4.4 4.5 4.9 4.9 4.7 5.0 4.9 5.0 5.3 5.1
4.2 4.5 4.5 4.6 4.5 4.3 4.1 4.4 4.6 4.7 4.6 4.2 4.1 4.3 4.7 4.8 4.9 4.8 4.6 4.2 3.9 4.1 3.7 4.0 4.3 4.3 4.3 4.3 4.1 4.6 4.9 4.7 4.7 4.9 5.1 4.8 5.0 4.9
3.9 4.0 4.0 4.0 4.0 4.0 3.9 3.8 3.4 3.4 3.7 4.1 4.2 3.9 3.5 3.5 3.7 3.9 4.3 4.3 4.3 4.2 3.8 4.0 4.3 4.5 4.5 4.7 4.8 4.6 4.7 5.0 5.1 5.0 4.8 4.7 4.3 4.7
3.8 3.7 3.5 3.4 3.3 3.2 3.2 3.1 3.0 3.0 3.1 3.0 3.1 3.5 3.7 3.4 2.9 2.9 3.0 3.2 3.3 3.6 3.9 4.2 4.0 4.3 4.8 4.8 4.9 5.3 5.1 4.8 4.9 4.8 4.7 4.8 4.7 4.5
3.6 3.4 3.3 3.1 3.0 2.9 2.9 2.8 2.7 2.7 2.6 2.6 2.7 2.9 2.9 3.1 3.1 2.8 2.5 2.4 2.5 2.8 3.0 3.2 3.4 3.5 3.5 4.2 4.1 4.3 4.6 4.8 4.4 4.3 4.5 4.6 4.6 4.8
3.3 3.2 3.1 2.9 2.7 2.7 2.7 2.6 2.6 2.6 2.6 2.6 2.5 2.5 2.6 2.8 2.8 2.6 2.7 2.6 2.1 2.0 1.9 2.2 2.4 2.7 2.8 3.0 3.4 3.8 4.1 4.3 4.6 4.8 4.4 4.1 4.0 4.2
Wind_Speed
13 15 15 12 13 11 10 11 15 13 14 11 8 14 12 12 18 21 24 26 32 32 31 29 28 27 29 31 31 33 34 34 35 36 37 37 38 37
9 15 14 13 13 11 9 12 9 8 11 13 10 9 13 12 15 21 23 21 29 31 28 29 30 31 30 31 31 31 32 32 33 35 36 35 36 36
12 10 17 15 12 12 11 11 13 9 14 14 9 10 12 14 12 14 17 14 16 27 28 28 29 29 30 32 33 32 32 32 32 34 35 37 38 37
15 16 15 14 14 14 12 14 15 16 14 19 14 9 13 15 13 14 10 11 10 19 26 26 28 28 26 28 28 29 31 33 33 34 33 34 37 38
16 15 16 17 18 12 13 13 14 14 15 16 17 8 9 9 10 8 10 10 9 11 18 19 21 24 25 25 26 28 29 30 31 31 34 35 35 36
17 17 17 17 16 16 13 14 15 15 13 14 12 7 8 7 9 9 7 7 8 6 8 11 15 19 22 24 26 27 27 26 28 31 33 35 36 34
18 18 18 24 27 20 11 12 9 9 14 14 12 8 9 6 12 8 10 8 8 8 8 7 6 7 9 17 15 22 25 26 28 28 29 32 34 34
16 17 18 25 24 26 20 19 16 11 6 8 12 12 13 12 7 8 9 7 6 7 8 7 7 7 8 8 17 20 24 24 25 26 29 30 32 33
17 17 16 15 23 18 23 20 22 24 14 9 7 10 7 9 1 4 4 5 3 1 3 7 3 7 6 7 17 22 22 22 24 25 26 28 30 30
17 19 18 18 23 20 17 16 15 17 17 11 11 11 11 11 9 5 2 2 1 2 2 2 2 4 3 5 13 19 21 22 22 22 25 27 28 28
15 17 20 20 30 31 18 19 17 16 19 24 22 24 21 23 22 6 3 3 1 2 1 3 3 2 2 3 5 15 18 20 18 20 23 24 24 23
15 17 30 24 33 35 19 16 16 15 15 16 15 17 19 17 22 13 9 5 3 1 4 3 2 4 3 4 9 9 8 15 16 17 19 19 18 7
12 13 14 32 31 32 28 18 17 14 15 13 12 12 12 13 11 10 9 8 6 2 4 5 2 2 1 2 2 3 5 3 5 6 14 15 15 14
13 11 14 28 27 28 22 29 25 16 10 10 10 10 11 11 10 9 10 8 5 7 10 9 3 3 3 4 6 1 5 5 4 4 4 5 13 15
10 16 23 24 24 19 29 27 19 12 11 12 11 10 10 10 11 10 9 10 7 6 10 8 7 7 4 5 5 2 2 2 4 4 4 5 5 5
13 11 12 14 17 15 14 14 12 12 11 11 11 11 11 11 11 11 9 11 7 9 10 14 11 9 6 5 6 7 3 2 1 2 2 2 2 5
11 10 12 12 12 12 10 12 12 13 12 11 11 11 11 11 11 12 11 10 9 10 9 9 11 11 7 9 4 5 5 4 2 1 2 2 4 6
10 10 10 11 12 12 13 13 13 15 12 11 11 11 10 11 11 11 10 10 10 10 10 10 10 10 8 1 2 4 2 3 2 2 2 3 3 4
11 11 11 11 11 11 11 11 12 11 13 11 10 10 10 10 12 11 11 11 10 9 10 10 10 9 10 9 6 4 6 5 4 2 2 4 3 3
10 10 9 10 10 10 10 10 10 11 11 11 11 11 11 11 12 12 11 11 11 10 11 10 10 10 9 8 9 9 3 7 5 5 2 1 1 2
9 9 8 8 8 8 8 9 10 10 10 10 11 11 12 11 12 12 12 15 14 11 12 12 12 16 9 8 5 7 5 10 7 6 3 4 2 1
8 8 8 8 8 8 8 9 9 10 11 11 10 11 11 11 11 12 12 12 12 11 11 10 11 10 9 8 9 10 5 4 4 7 6 3 2 2
8 8 8 7 8 8 9 10 11 11 11 11 11 11 11 11 11 11 12 12 12 12 12 11 10 10 9 8 8 6 4 4 2 3 5 4 5 8
Wind_Direction
293 280 238 228 228 227 223 210 234 236 231 226 219 212 214 213 212 205 215 205 207 213 214 215 214 214 214 211 209 213 213 216 217 215 214 215 218 219
305 307 258 238 232 223 210 211 225 229 264 237 215 214 208 210 206 208 215 207 204 212 211 211 209 213 212 212 212 214 215 214 215 215 214 213 217 220
332 305 304 252 234 228 219 220 225 202 236 244 241 209 207 203 199 207 213 210 212 207 207 210 210 212 211 212 211 213 213 215 217 214 213 213 214 216
5 9 350 332 256 252 242 230 219 216 221 243 245 216 215 204 200 192 200 209 212 202 204 199 207 208 211 216 217 216 218 216 213 214 212 213 214 214
10 15 16 6 354 315 258 248 244 230 218 227 237 211 213 199 199 196 193 207 208 194 200 194 201 206 212 215 218 219 218 219 219 217 210 210 212 214
14 14 15 11 351 347 320 275 243 231 229 216 220 208 209 207 204 186 189 205 200 187 195 188 189 212 208 211 215 217 219 220 221 218 216 213 211 211
19 14 16 11 6 357 360 354 336 280 225 220 219 211 212 199 204 196 208 200 209 195 200 203 178 196 220 214 217 216 216 216 220 223 218 215 215 212
18 16 17 11 4 8 354 15 25 8 357 251 212 213 201 207 190 197 201 209 209 193 191 210 193 206 223 214 206 207 213 218 221 222 221 219 217 217
19 22 17 13 10 11 5 11 18 25 18 32 359 23 358 358 34 137 187 208 178 112 194 205 168 219 205 213 207 213 218 217 219 221 220 217 219 219
15 23 17 14 18 17 15 12 12 20 9 20 22 39 12 13 326 351 94 55 7 233 157 189 155 210 216 225 210 215 221 223 218 219 219 218 217 217
19 17 23 18 19 21 19 15 18 17 7 18 17 29 34 21 17 358 321 109 61 282 276 157 185 210 191 232 238 227 229 224 219 219 224 221 218 216
16 17 22 25 25 27 25 17 18 8 6 10 14 15 22 20 23 16 350 39 350 50 345 250 198 173 254 201 227 231 224 226 221 217 221 218 215 213
14 8 13 20 23 29 28 25 17 357 15 19 13 11 12 9 11 11 340 16 349 286 38 341 295 347 243 271 228 188 203 218 217 229 218 218 210 199
15 6 8 16 20 25 30 24 18 16 23 26 23 12 12 2 354 348 357 338 331 304 299 291 305 326 326 297 259 206 225 204 202 220 220 207 212 215
18 15 14 17 16 16 21 20 19 18 20 24 7 4 10 5 354 355 356 0 354 16 350 351 328 324 298 267 290 309 309 223 217 211 209 210 213 193
12 20 18 18 21 17 15 15 19 14 18 12 1 354 1 8 6 1 359 0 3 357 356 355 339 323 307 287 277 266 237 262 298 240 222 212 229 238
8 19 21 20 16 14 14 16 15 13 15 6 3 357 359 0 6 0 356 4 5 351 347 343 340 321 282 263 272 252 268 255 246 245 205 257 229 232
30 28 22 15 14 8 6 6 11 10 6 1 360 355 354 359 356 358 357 359 353 349 342 344 348 348 346 325 285 309 291 296 313 239 210 262 266 218
36 27 21 15 12 11 5 5 0 358 353 360 357 352 350 350 351 358 356 356 350 346 340 347 353 356 343 325 307 67 349 315 305 288 233 240 270 276
32 24 17 10 3 2 1 0 354 355 356 353 353 353 354 350 351 352 352 349 344 340 337 349 354 350 327 309 305 303 315 303 298 289 280 84 36 49
18 18 13 7 4 359 356 352 348 351 350 349 352 350 352 350 346 344 342 345 341 345 340 342 337 325 309 299 279 305 330 2 314 286 264 226 202 200
11 7 3 0 357 356 353 353 350 353 354 353 350 348 346 343 342 338 340 338 342 337 330 331 333 336 336 333 324 316 312 327 34 55 50 2 298 261
2 359 354 354 354 354 352 351 351 350 352 348 345 343 339 338 339 336 334 336 335 335 336 330 334 336 331 328 316 318 336 323 338 61 39 319 209 137